DW1345 Weather Reports


time (UTC)temp
F
wind
direction
speed
knots
gust
knots
rain 1hr
in
rain 24hr
in
rain mn
in
humidity
%
barometer
mb
20260509071539 55 245 1.7 0.0 0.00 0.00 0.00 51 1015.8
20260509070036 55 162 5.2 0.0 0.00 0.00 0.00 43 1015.7
20260509064534 55 89 3.5 0.0 0.00 0.00 0.00 43 1015.5
20260509063030 53 170 5.2 0.0 0.00 0.00 0.00 44 1015.6
20260509061529 53 132 5.2 0.0 0.00 0.00 0.00 44 1015.5
20260509060027 53 116 6.1 0.0 0.00 0.00 0.00 45 1015.4
20260509054538 52 113 6.1 0.0 0.00 0.00 0.00 45 1015.5
20260509053059 52 155 4.3 0.0 0.00 0.00 0.00 47 1015.4
20260509051526 52 98 6.1 0.0 0.00 0.00 0.00 46 1015.4
20260509050036 52 102 6.1 0.0 0.00 0.00 0.00 47 1015.4
20260509044519 51 76 5.2 0.0 0.00 0.00 0.00 48 1015.4
20260509043018 51 88 6.1 0.0 0.00 0.00 0.00 49 1015.5
20260509041516 50 118 6.1 0.0 0.00 0.00 0.00 49 1015.6
20260509040016 50 85 6.1 0.0 0.00 0.00 0.00 50 1015.7
20260509034514 50 149 7.0 0.0 0.00 0.00 0.00 49 1015.7
20260509033013 50 142 6.1 0.0 0.00 0.00 0.00 48 1015.7
20260509031512 50 127 6.1 0.0 0.00 0.00 0.00 48 1015.8
20260509030025 50 128 5.2 0.0 0.00 0.00 0.00 50 1016.0
20260509024511 50 128 7.0 0.0 0.00 0.00 0.00 50 1015.9
20260509023020 49 130 7.8 0.0 0.00 0.00 0.00 50 1015.9
20260509021507 49 74 5.2 0.0 0.00 0.00 0.00 50 1016.3
20260509020006 49 68 3.5 0.0 0.00 0.00 0.00 51 1016.4
20260509014506 50 48 2.6 0.0 0.00 0.00 0.00 49 1016.5
20260509013004 50 93 4.3 0.0 0.00 0.00 0.00 48 1016.4
20260509011505 50 126 6.1 0.0 0.00 0.00 0.00 48 1016.4
20260509010011 50 59 8.7 0.0 0.00 0.00 0.00 48 1016.4
20260509004501 50 153 8.7 0.0 0.00 0.00 0.00 49 1016.6
20260509003133 50 170 8.7 0.0 0.00 0.00 0.00 49 1016.7
20260509001606 50 132 7.8 0.0 0.00 0.00 0.00 49 1016.8
20260509000111 49 132 8.7 0.0 0.00 0.00 0.00 50 1016.9
20260508234554 49 71 7.8 0.0 0.00 0.00 0.00 50 1017.0
20260508233052 49 144 8.7 0.0 0.00 0.00 0.00 50 1017.1
20260508231552 48 92 7.8 0.0 0.00 0.00 0.00 51 1017.4
20260508230046 48 98 7.0 0.0 0.00 0.00 0.00 51 1017.5
20260508224545 47 128 6.1 0.0 0.00 0.00 0.00 54 1017.9
20260508223042 48 119 7.0 0.0 0.00 0.00 0.00 53 1018.1
20260508221537 49 95 7.8 0.0 0.00 0.00 0.00 48 1017.9
20260508220034 48 88 7.0 0.0 0.00 0.00 0.02 48 1018.1
20260508214534 48 129 6.1 0.0 0.00 0.00 0.02 49 1018.4
20260508213034 48 83 6.1 0.0 0.00 0.00 0.02 47 1018.5
20260508211532 48 93 6.1 0.0 0.00 0.00 0.02 48 1018.3
20260508210034 48 85 6.1 0.0 0.00 0.00 0.02 47 1018.3
20260508204532 48 127 6.1 0.0 0.00 0.00 0.02 48 1018.7
20260508203034 47 138 5.2 0.0 0.00 0.00 0.02 50 1019.0
20260508201531 47 86 5.2 0.0 0.00 0.00 0.02 49 1019.0
20260508200035 47 106 5.2 0.0 0.00 0.00 0.02 47 1019.1
20260508194530 48 107 4.3 0.0 0.00 0.00 0.02 47 1019.1
20260508193029 48 113 4.3 0.0 0.00 0.00 0.02 47 1019.2
20260508191529 48 102 4.3 0.0 0.00 0.00 0.02 47 1019.3
20260508190038 49 132 4.3 0.0 0.00 0.00 0.02 46 1019.3
20260508184528 49 96 4.3 0.0 0.00 0.00 0.02 46 1019.4
20260508183028 49 103 3.5 0.0 0.00 0.00 0.02 46 1019.5
20260508181527 49 86 3.5 0.0 0.00 0.00 0.02 44 1019.6
20260508180028 49 101 4.3 0.0 0.00 0.00 0.02 44 1019.6
20260508174540 50 96 3.5 0.0 0.00 0.00 0.02 44 1019.7
20260508173031 50 107 5.2 0.0 0.00 0.00 0.02 42 1019.6
20260508171526 51 134 3.5 0.0 0.00 0.00 0.02 41 1019.7
20260508170031 50 92 5.2 0.0 0.00 0.00 0.02 41 1019.8
20260508164525 51 134 5.2 0.0 0.00 0.00 0.02 40 1019.9
20260508163039 51 74 5.2 0.0 0.00 0.00 0.02 41 1019.9
20260508161524 53 82 3.5 0.0 0.00 0.00 0.02 39 1020.1
20260508160026 51 109 5.2 0.0 0.00 0.00 0.02 40 1019.9
20260508154523 51 145 4.3 0.0 0.00 0.00 0.02 41 1020.0
20260508153028 52 135 3.5 0.0 0.00 0.00 0.02 39 1020.1
20260508151528 52 145 3.5 0.0 0.00 0.00 0.02 40 1020.1
20260508150027 50 81 4.3 0.0 0.00 0.00 0.02 41 1020.3
20260508144520 50 67 5.2 0.0 0.00 0.00 0.02 44 1020.4
20260508143019 51 87 5.2 0.0 0.00 0.00 0.02 45 1020.5
20260508141518 50 97 4.3 0.0 0.00 0.00 0.02 46 1020.6
20260508140020 51 102 4.3 0.0 0.00 0.00 0.02 45 1020.8
20260508134523 51 82 5.2 0.0 0.00 0.00 0.02 47 1021.0
20260508133018 51 103 4.3 0.0 0.00 0.00 0.02 46 1021.1
20260508131517 50 109 3.5 0.0 0.00 0.00 0.02 46 1021.2
20260508130016 50 75 5.2 0.0 0.00 0.00 0.02 46 1021.4
20260508124516 50 77 5.2 0.0 0.00 0.00 0.02 46 1021.4
20260508123014 51 92 2.6 0.0 0.00 0.00 0.02 45 1021.4
20260508121516 51 95 3.5 0.0 0.00 0.00 0.02 45 1021.3
20260508120011 51 103 3.5 0.0 0.00 0.00 0.02 49 1021.2
20260508114509 49 89 3.5 0.0 0.00 0.00 0.02 51 1021.4
20260508113007 49 94 3.5 0.0 0.00 0.00 0.02 49 1021.4
20260508111506 49 132 5.2 0.0 0.00 0.00 0.02 51 1021.4
20260508110003 52 80 1.7 0.0 0.00 0.00 0.02 48 1021.4
20260508104605 52 173 1.7 0.0 0.00 0.00 0.02 50 1021.5
20260508103058 50 93 1.7 0.0 0.00 0.00 0.02 51 1021.6
20260508101556 48 302 1.7 0.0 0.00 0.00 0.02 54 1021.6
20260508100049 46 206 0.9 0.0 0.00 0.00 0.02 58 1021.7
20260508094554 46 248 0.9 0.0 0.00 0.00 0.02 63 1021.9
20260508093055 46 254 0.9 0.0 0.00 0.00 0.02 62 1022.0
20260508091543 45 258 0.9 0.0 0.00 0.00 0.02 64 1021.8
20260508084538 46 318 1.7 0.0 0.00 0.00 0.02 63 1021.9
20260508083036 45 209 1.7 0.0 0.00 0.00 0.02 69 1021.7
20260508081531 45 310 0.0 0.0 0.00 0.00 0.02 72 1021.6
20260508080036 44 317 0.9 0.0 0.00 0.00 0.02 75 1021.6
20260508074535 44 327 0.0 0.0 0.00 0.00 0.02 75 1021.5
20260508073023 44 40 1.7 0.0 0.00 0.00 0.02 77 1021.4